This demonstration page uses our WeatherBlox Daily Observations layout. Learn more.

Left ArrowRight Arrow

39.51506, -84.39828

Hourly Observations for July 9, 2021

Temp ( °F °C ) Dew Point ( °F °C ) Humidity (%) Winds ( mph kmh ) Pressure ( in mb ) Visibility ( mi km ) Precip ( " mm )
12:15 am 00:15 Cloudy 74 23.2 73 22.6 96 96 W 6 9 29.90 1012 10 16 N/A
12:35 am 00:35 Cloudy 74 23.2 73 22.6 96 96 W 5 7 29.91 1013 10 16 N/A
12:55 am 00:55 Cloudy 74 23.2 71 21.9 92 92 N 12 19 29.91 1013 10 16 N/A
1:15 am 01:15 Cloudy 73 22.7 71 21.4 92 92 NNW 8 13 29.91 1013 10 16 N/A
1:35 am 01:35 Mostly Cloudy 71 21.8 69 20.6 93 93 NNW 9 15 29.91 1013 10 16 N/A
1:55 am 01:55 Mostly Cloudy 71 21.7 67 19.4 87 87 NNW 10 17 29.92 1013 10 16 N/A
2:15 am 02:15 Cloudy 70 21.3 67 19.2 88 88 N 7 11 29.91 1013 10 16 N/A
2:35 am 02:35 Clear 69 20.7 66 19.1 91 91 N 6 9 29.91 1013 10 16 N/A
2:55 am 02:55 Clear 69 20.5 66 18.9 91 91 N N/A 29.92 1013 10 16 N/A
3:15 am 03:15 Mostly Cloudy 68 20.2 67 19.2 94 94 NNW 5 7 29.93 1014 10 16 N/A
3:35 am 03:35 Cloudy 68 20.2 66 19.1 93 93 N 5 7 29.93 1014 10 16 N/A
3:55 am 03:55 Cloudy 68 20.1 66 19 93 93 NNW 6 9 29.94 1014 10 16 N/A
4:15 am 04:15 Cloudy 67 19.7 65 18.6 93 93 NNW 7 11 29.95 1014 10 16 N/A
4:35 am 04:35 Cloudy 67 19.5 65 18.3 93 93 N 9 15 29.95 1014 10 16 N/A
4:55 am 04:55 Cloudy 67 19.2 64 17.9 92 92 N 7 11 29.95 1014 10 16 N/A
5:15 am 05:15 Cloudy 66 18.8 64 17.5 92 92 NW 8 13 29.96 1014 10 16 N/A
5:35 am 05:35 Cloudy 65 18.6 63 17.3 92 92 NNW 5 7 29.96 1014 10 16 N/A
5:55 am 05:55 Cloudy 66 18.7 63 17.3 92 92 NW 3 6 29.96 1014 10 16 N/A
6:15 am 06:15 Cloudy 66 18.8 63 17.3 91 91 NW 5 7 29.96 1014 10 16 N/A
6:35 am 06:35 Cloudy 65 18.6 63 17 90 90 NW 5 7 29.97 1015 10 16 N/A
6:55 am 06:55 Cloudy 65 18.5 62 16.6 89 89 NW 3 6 29.98 1015 10 16 N/A
7:15 am 07:15 Cloudy 66 18.7 62 16.4 87 87 NNW 7 11 29.98 1015 10 16 N/A
7:35 am 07:35 Mostly Cloudy 65 18.1 61 16 88 88 NW 10 17 30.00 1016 10 16 N/A
7:55 am 07:55 Mostly Cloudy 64 17.7 60 15.6 88 88 WNW 13 20 30.01 1016 10 16 N/A
8:15 am 08:15 Cloudy 64 17.6 59 15.2 86 86 NW 12 19 30.02 1017 10 16 N/A
8:35 am 08:35 Cloudy 64 17.7 59 15 84 84 NW 9 15 30.02 1017 10 16 N/A
8:55 am 08:55 Cloudy 65 18.1 58 14.7 81 81 NW 9 15 30.03 1017 10 16 N/A
9:15 am 09:15 Mostly Cloudy 66 19 59 15 78 78 N 9 15 30.03 1017 10 16 N/A
9:35 am 09:35 Cloudy 66 18.9 59 15 78 78 N 9 15 30.04 1017 10 16 N/A
9:55 am 09:55 Cloudy 65 18.3 59 14.8 80 80 NNW 9 15 30.04 1017 10 16 N/A
10:15 am 10:15 Cloudy 65 18.2 58 14.7 80 80 N 9 15 30.04 1017 10 16 N/A
10:35 am 10:35 Cloudy 64 18 59 14.8 82 82 NW 9 15 30.05 1018 10 16 N/A
10:55 am 10:55 Cloudy 65 18.2 58 14.7 80 80 NW 9 15 30.07 1018 10 16 N/A
11:15 am 11:15 Cloudy 65 18.3 59 14.8 80 80 NNW 7 11 30.07 1018 10 16 N/A
11:35 am 11:35 Cloudy 65 18.5 59 15 80 80 N 10 17 30.07 1018 10 16 N/A
11:55 am 11:55 Cloudy 65 18.3 59 14.9 81 81 N 6 9 30.08 1019 10 16 N/A
12:15 pm 12:15 Cloudy 66 18.7 60 15.5 82 82 WNW 9 15 30.07 1018 10 16 N/A
12:35 pm 12:35 Cloudy 67 19.2 60 15.5 79 79 WNW 9 15 30.08 1019 10 16 N/A
12:55 pm 12:55 Cloudy 67 19.7 60 15.3 76 76 WNW 5 7 30.08 1018 10 16 N/A
1:15 pm 13:15 Cloudy 68 20.1 60 15.5 75 75 N 5 7 30.07 1018 10 16 N/A
1:35 pm 13:35 Cloudy 69 20.5 60 15.8 75 75 WSW 6 9 30.07 1018 10 16 N/A
1:55 pm 13:55 Cloudy 69 20.8 60 15.6 72 72 N N/A 30.07 1018 10 16 N/A
2:15 pm 14:15 Cloudy 71 21.4 60 15.7 70 70 S 3 6 30.06 1018 10 16 N/A
2:35 pm 14:35 Cloudy 70 21.2 61 16.2 73 73 SSW 3 6 30.06 1018 10 16 N/A
2:55 pm 14:55 Cloudy 72 22.2 62 16.7 71 71 SW 7 11 30.06 1018 10 16 N/A
3:15 pm 15:15 Cloudy 71 21.6 62 16.7 74 74 WSW 8 13 30.07 1018 10 16 N/A
3:35 pm 15:35 Mostly Cloudy 71 21.5 62 16.6 74 74 S 7 11 30.03 1017 10 16 N/A
3:55 pm 15:55 Mostly Cloudy 70 21.1 62 16.6 76 76 W 6 9 30.05 1018 10 16 N/A
4:15 pm 16:15 Mostly Cloudy 71 21.8 62 16.9 74 74 W 8 13 30.05 1018 10 16 N/A
4:35 pm 16:35 Cloudy 72 22.1 62 16.9 72 72 W 8 13 30.04 1017 10 16 N/A
4:55 pm 16:55 Mostly Cloudy 74 23.1 63 17.3 70 70 NNW 7 11 30.03 1017 10 16 N/A
5:15 pm 17:15 Sunny 72 22.2 62 16.9 72 72 WNW 6 9 30.03 1017 10 16 N/A
5:35 pm 17:35 Partly Cloudy 72 22 62 16.7 72 72 N N/A 30.03 1017 10 16 N/A
5:55 pm 17:55 Mostly Cloudy 71 21.9 62 16.7 72 72 WNW 5 7 30.03 1017 10 16 N/A
6:15 pm 18:15 Sunny 71 21.9 63 17.1 74 74 WNW 6 9 30.03 1017 10 16 N/A
6:35 pm 18:35 Sunny 71 21.7 63 17.2 76 76 WNW 7 11 30.05 1018 10 16 N/A
6:55 pm 18:55 Sunny 71 21.5 62 16.9 75 75 WNW 7 11 30.04 1017 10 16 N/A
7:15 pm 19:15 Sunny 71 21.4 63 17.1 77 77 WNW 6 9 30.05 1018 10 16 N/A
7:35 pm 19:35 Partly Cloudy 70 21.1 63 17 78 78 WNW 6 9 30.06 1018 10 16 N/A
7:55 pm 19:55 Mostly Cloudy 70 21.2 62 16.9 77 77 W 3 6 30.05 1018 10 16 N/A
8:15 pm 20:15 Sunny 71 21.5 62 16.7 74 74 WNW 6 9 30.06 1018 10 16 N/A
8:35 pm 20:35 Sunny 69 20.7 62 16.8 78 78 NW 5 7 30.06 1018 10 16 N/A
8:55 pm 20:55 Sunny 67 19.7 63 17.2 86 86 NW 3 6 30.07 1018 10 16 N/A
9:15 pm 21:15 Clear 66 19 63 17.3 90 90 N N/A 30.07 1018 10 16 N/A
9:35 pm 21:35 Clear 65 18.3 64 17.9 98 98 N N/A 30.07 1018 10 16 N/A
9:55 pm 21:55 Clear 65 18.2 63 17 93 93 N N/A 30.08 1019 10 16 N/A
10:15 pm 22:15 Clear 63 17 63 17 100 100 SW 3 6 30.09 1019 10 16 N/A
10:35 pm 22:35 Clear 63 17 N/A N/A W 3 6 30.10 1019 10 16 N/A
10:55 pm 22:55 Clear 63 17 N/A N/A N 3 6 30.10 1019 10 16 N/A
11:15 pm 23:15 Clear 61 16 N/A N/A N N/A 30.09 1019 10 16 N/A
11:35 pm 23:35 Clear 61 16 N/A N/A N 5 7 30.09 1019 7 11 N/A
11:55 pm 23:55 Clear 61 16 N/A N/A NE 5 7 30.08 1019 10 16 N/A

Powered by AerisWeather